sat.trackr.live / text

‹ back to catalog

SXM-7

NORAD 47240 · 2020-096A

PAYLOAD ACTIVE UNKNOWN

§ Identity

Operator
Country
US
Launch date
2020-12-13
Launch site
AFETR
Launch vehicle
Mass (kg)
RCS (m²)

Purposes: comms

External: N2YO · Heavens-Above · Gunter

§ Orbital elements

Epoch: 2026-09-08T01:43:22.918656Z

Period
1,436.10 min
Inclination
0.0177°
Eccentricity
0.0004244
Mean motion
1.00271661 rev/d
Perigee alt
35,768.7 km
Apogee alt
35,804.5 km
Semi-major
42,164.8 km
B*
0.0000e+0
RAAN
122.6257°
Arg perigee
3.3133°
Mean anomaly
161.8804°
Rev number
827

§ Raw data

SXM-71 47240U 20096A   26251.07179304 -.00000226  00000+0  00000+0 0  99902 47240   0.0177 122.6257 0004244   3.3133 161.8804  1.00271661  8275

JSON: /api/v1/satellites/47240 · /tle

For live sub-satellite position, see the globe view (requires WebGL).

§ Visibility from observer

Set your observer location to see the next 7 days of passes ≥ 10°. The values pass through the URL so the page stays shareable.

No JS? Fill the form by hand. The geolocation button needs JavaScript.